Photometre #247[Polarized_P] Martova AOT

File : 20190928_247.hum

28/09/2019,04:22:55,TEMP=11.0,BA=5.32,STAT.A
28/09/2019,04:26:59,TEMP=11.1,BA=5.32,STAT.A
28/09/2019,04:31:45,TEMP=11.3,BA=5.32,STAT.A
28/09/2019,04:37:25,TEMP=11.3,BA=5.32,STAT.A
28/09/2019,04:44:17,TEMP=11.3,BA=5.32,STAT.A
28/09/2019,04:52:47,TEMP=11.4,BA=5.36,STAT.A
28/09/2019,05:03:35,TEMP=11.5,BA=5.40,STAT.B
28/09/2019,05:08:47,TEMP=11.6,BA=5.40,STAT.A
28/09/2019,05:14:38,TEMP=11.8,BA=5.40,STAT.A
28/09/2019,05:21:16,TEMP=11.9,BA=5.44,STAT.A
28/09/2019,05:28:51,TEMP=12.1,BA=5.44,STAT.A
28/09/2019,05:37:39,TEMP=12.2,BA=5.48,STAT.C
28/09/2019,05:48:00,TEMP=12.2,BA=5.44,STAT.A
28/09/2019,06:00:21,TEMP=12.4,BA=5.48,STAT.A
28/09/2019,06:15:31,TEMP=12.7,BA=5.52,STAT.A
28/09/2019,06:23:27,TEMP=13.0,BA=5.52,STAT.F
28/09/2019,06:38:27,TEMP=13.4,BA=5.56,STAT.D
28/09/2019,06:53:27,TEMP=14.1,BA=5.60,STAT.D
28/09/2019,07:08:27,TEMP=14.8,BA=5.60,STAT.D
28/09/2019,07:23:28,TEMP=15.5,BA=5.64,STAT.F
28/09/2019,07:38:30,TEMP=16.7,BA=5.64,STAT.D
28/09/2019,07:53:31,TEMP=17.6,BA=5.64,STAT.D
28/09/2019,08:08:32,TEMP=18.0,BA=5.64,STAT.D
28/09/2019,08:23:47,TEMP=18.7,BA=5.64,STAT.F
28/09/2019,08:38:29,TEMP=19.1,BA=5.64,STAT.D
28/09/2019,08:53:35,TEMP=19.8,BA=5.64,STAT.D
28/09/2019,09:08:28,TEMP=20.6,BA=5.64,STAT.D
28/09/2019,09:23:30,TEMP=21.2,BA=5.64,STAT.E
28/09/2019,09:38:28,TEMP=21.5,BA=5.64,STAT.D
28/09/2019,09:53:28,TEMP=20.7,BA=5.64,STAT.D
28/09/2019,10:08:29,TEMP=20.0,BA=5.64,STAT.D
28/09/2019,10:23:28,TEMP=20.2,BA=5.64,STAT.F
28/09/2019,10:38:28,TEMP=20.5,BA=5.64,STAT.D
28/09/2019,10:53:28,TEMP=20.0,BA=5.64,STAT.D
28/09/2019,11:08:28,TEMP=20.6,BA=5.64,STAT.D
28/09/2019,11:23:28,TEMP=22.5,BA=5.64,STAT.F
28/09/2019,11:38:28,TEMP=22.9,BA=5.64,STAT.D
28/09/2019,11:53:28,TEMP=23.3,BA=5.64,STAT.D
28/09/2019,12:08:28,TEMP=22.9,BA=5.64,STAT.D
28/09/2019,12:23:28,TEMP=22.3,BA=5.64,STAT.F
28/09/2019,12:37:39,TEMP=22.2,BA=5.64,STAT.A
28/09/2019,12:46:32,TEMP=22.2,BA=5.64,STAT.A
28/09/2019,12:58:55,TEMP=22.3,BA=5.64,STAT.A
28/09/2019,13:09:15,TEMP=22.0,BA=5.64,STAT.C
28/09/2019,13:23:14,TEMP=21.7,BA=5.64,STAT.A
28/09/2019,13:25:37,TEMP=21.8,BA=5.64,STAT.A
28/09/2019,13:32:15,TEMP=21.6,BA=5.64,STAT.A
28/09/2019,13:38:06,TEMP=21.4,BA=5.64,STAT.A
28/09/2019,13:43:18,TEMP=21.2,BA=5.64,STAT.B
28/09/2019,13:54:06,TEMP=20.8,BA=5.64,STAT.A
28/09/2019,14:02:37,TEMP=20.6,BA=5.64,STAT.A
28/09/2019,14:09:28,TEMP=20.4,BA=5.64,STAT.A
28/09/2019,14:15:08,TEMP=19.9,BA=5.64,STAT.A
28/09/2019,14:19:54,TEMP=19.4,BA=5.64,STAT.A
28/09/2019,14:23:58,TEMP=19.1,BA=5.60,STAT.A